Regional Weather Roundup
Issued by NWS Cleveland, OH

Home | Current Version | Previous Version | Graphics & Text | Print | Product List | Glossary On
Versions: 1 2 3 4 5 6 7 8 9 10 11 12 13 14 15 16 17 18 19 20 21 22 23 24 25 26 27 28 29 30 31 32 33 34 35 36 37 38 39 40 41 42 43 44 45 46 47 48 49 50
000
ASUS41 KCLE 290712
RWRCLE
OHIO REGIONAL WEATHER ROUNDUP
NATIONAL WEATHER SERVICE WILMINGTON, OH
300 AM EDT MON MAY 29 2017

NOTE: "FAIR" INDICATES FEW OR NO CLOUDS BELOW 12,000 FEET WITH NO
SIGNIFICANT WEATHER AND/OR OBSTRUCTIONS TO VISIBILITY.

OHZ001>008-015>018-024>027-034-035-043-044-290800-
   NORTHWEST OHIO

CITY           SKY/WX    TMP DP  RH WIND       PRES   REMARKS
DEFIANCE       FAIR      58  56  93 SW5       29.78S
FINDLAY        FAIR      60  55  83 SW6       29.79R
TOLEDO EXPRESS FAIR      58  57  97 SW6       29.76R
TOLEDO EXEC    FAIR      61  58  90 W8        29.77R
LIMA           FAIR      59  58  96 SW6       29.81S
$$

OHZ009>014-019>023-028>033-038-089-290800-
   NORTHEAST OHIO

CITY           SKY/WX    TMP DP  RH WIND       PRES   REMARKS
CLE-HOPKINS    CLOUDY    64  60  87 SW10      29.77R
CLE-LAKEFRONT  MOCLDY    64  59  83 SW17G25   29.73S
CUY CO. ARPT   NOT AVBL
LORAIN-ELYRIA  CLOUDY    62  56  80 W12       29.77R
ASHTABULA      LGT RAIN  61  61 100 SW5       29.76S
AKRON-CANTON   MOCLDY    60  57  89 S8        29.78R
WOOSTER        MOCLDY    60  59  96 SW7       29.79R
MANSFIELD      MOCLDY    60  58  92 SW8       29.80R
YOUNGSTOWN     LGT RAIN  61  59  93 S5        29.76F
$$

OHZ042-051>053-060>062-070>072-077>081-290800-
  SOUTHWEST OHIO

CITY           SKY/WX    TMP DP  RH WIND       PRES   REMARKS
CINC-COVINGTON FAIR      61  60  97 SW6       29.87R
CINC-LUNKEN    FOG       60  60 100 CALM      29.87R VSB 3/4
HAMILTON       FOG       60  60 100 CALM      29.87R VSB 1/4
DAYTON         FAIR      59  58  96 SW8       29.85R
WRIGHT-PAT AFB CLEAR     59  59 100 SW3       29.84R
DAYTON GENERAL FAIR      61  59  93 SW3       29.85R
WILMINGTON     FAIR      63  63 100 W9        29.86R
$$

OHZ036-037-039>041-045>050-054>059-063>069-073>076-082>088-290800-
  CENTRAL AND SOUTHEAST OHIO

CITY           SKY/WX    TMP DP  RH WIND       PRES   REMARKS
COLUMBUS       CLOUDY    65  62  90 W8        29.82R
OSU AIRPORT    FAIR      63  62  97 SW8       29.82R
BOLTON FIELD   MOCLDY    64  60  88 W7        29.84R
RICKENBACK AFB CLOUDY    65  63  91 W10       29.83R
NEWARK         CLOUDY    63  59  87 W6        29.81R
MARION         FAIR      61  58  90 W6        29.81R
LANCASTER      MOCLDY    68  63  84 W7        29.83R
ZANESVILLE     FAIR      62  59  90 S5        29.80F
NEW PHILLY     FAIR      61  59  93 CALM      29.80R
$$




USA.gov is the U.S. government's official web portal to all federal, state and local government web resources and services.